Wind_Speed
96 95 94 95 96 92 88 86 85 83 78 78 70 65 62 55 55 49 53 54 54 52 50 48 47 44 44 46 44 43 44 40 40 37 38 36 37 35 34 33 32 33 33 33 35 37 38 34 31
99 96 97 97 92 90 92 93 89 88 82 72 71 75 70 63 58 52 53 52 53 53 53 50 48 48 45 45 45 44 45 42 39 38 38 38 38 37 36 35 34 34 37 38 39 38 35 33 31
100 102 100 95 92 87 93 97 97 92 85 76 84 82 76 66 56 61 56 56 51 49 48 46 46 46 47 46 46 45 45 42 39 39 38 40 39 38 37 34 34 35 37 36 33 32 31 30 28
104 104 101 94 88 85 91 100 104 97 89 88 91 87 77 74 68 65 63 60 56 50 48 46 43 42 42 43 46 47 46 43 40 38 39 39 39 38 38 36 36 34 34 34 34 33 31 30 28
100 105 104 93 91 91 95 104 102 97 95 94 94 88 80 81 76 69 65 64 60 56 50 47 45 43 40 38 41 44 47 45 43 40 39 38 38 38 36 36 35 35 33 33 34 32 31 29 28
101 103 102 92 89 95 98 103 96 93 96 96 95 88 84 84 81 73 67 65 64 60 55 50 48 46 43 41 40 40 43 45 45 43 42 39 39 39 37 35 35 34 34 33 34 31 32 30 29
96 97 95 96 96 103 104 102 96 96 98 95 95 92 86 85 81 78 73 68 67 63 60 55 52 50 46 43 41 40 39 42 46 46 44 42 39 39 38 36 36 36 35 34 34 33 32 32 31
94 99 101 101 104 104 108 96 98 99 101 101 102 92 87 86 85 81 75 68 71 67 64 58 55 52 50 47 45 42 41 40 41 46 45 45 41 40 39 39 38 37 37 36 35 35 35 34 33
96 101 103 100 103 103 107 99 99 105 104 104 102 92 89 92 88 84 79 73 71 68 66 62 59 55 51 49 47 45 43 41 41 44 45 45 44 42 41 41 40 38 39 37 37 36 36 36 35
96 96 97 102 103 109 110 102 103 104 103 104 100 96 95 95 90 87 83 79 77 71 69 67 63 58 54 51 48 46 45 44 42 42 44 43 44 41 40 41 40 38 41 38 38 38 38 38 38
89 93 101 105 108 113 112 106 107 103 101 108 104 102 101 99 95 91 87 83 80 77 74 69 66 61 57 54 50 48 46 46 44 42 44 42 42 41 40 40 37 38 40 38 39 39 39 40 40
83 96 103 109 111 110 108 109 105 104 102 110 105 102 104 101 97 94 90 85 82 81 77 71 70 65 59 55 52 48 47 47 45 43 44 45 43 42 40 38 38 39 39 40 40 41 41 42 42
80 95 104 109 108 106 109 109 109 106 105 105 101 99 101 104 96 95 92 89 83 82 79 75 71 67 63 58 56 52 48 47 48 46 46 45 46 44 42 40 40 38 40 40 42 42 43 45 44
83 93 103 108 108 108 109 110 107 109 108 105 98 100 101 102 100 93 96 89 87 85 81 77 74 69 67 63 61 56 54 49 50 50 49 48 47 47 44 43 41 40 41 42 42 43 44 45 45
78 86 95 100 104 104 107 110 110 108 109 104 96 99 98 101 103 101 95 92 88 87 85 80 78 73 68 67 65 60 59 54 50 51 51 51 50 50 47 46 44 43 44 44 43 43 45 46 46
74 85 92 97 103 103 106 105 106 109 111 101 99 103 98 100 102 103 101 98 86 89 89 85 84 78 74 70 67 62 62 59 56 51 52 52 52 53 50 50 48 47 47 47 47 48 49 51 52
69 75 84 94 100 100 101 100 105 106 107 100 98 102 99 98 101 102 102 100 98 93 86 84 84 81 78 76 71 68 62 61 60 56 49 52 53 52 53 52 52 52 52 53 54 55 55 56 57
63 73 82 88 97 97 102 99 103 107 103 103 101 102 100 98 98 100 100 102 100 98 96 91 85 83 77 77 75 72 67 63 62 59 55 51 51 53 53 54 54 55 57 57 58 59 60 60 62
68 76 85 90 95 96 101 104 104 103 101 103 103 99 99 99 98 99 100 100 103 88 92 95 94 93 88 82 75 69 66 65 58 59 60 56 54 54 55 54 53 58 62 64 60 57 58 62 63
67 74 82 88 92 93 98 101 101 99 100 100 102 102 100 101 99 98 98 100 98 100 87 90 96 94 93 89 86 83 78 69 62 56 60 55 59 56 56 58 61 61 60 54 46 46 46 49 51
66 71 80 86 83 86 95 100 100 95 97 100 100 101 100 95 96 96 96 97 97 97 99 96 92 92 93 92 87 86 84 80 72 60 64 51 51 48 47 46 50 59 67 67 61 59 60 59 59
63 71 78 81 83 87 93 92 93 91 93 96 96 99 93 92 93 96 93 96 97 97 97 96 93 91 91 90 86 82 81 81 80 66 54 62 60 56 61 59 60 60 61 63 67 69 72 74 74
69 71 72 78 83 88 91 91 92 91 91 93 93 95 95 93 95 96 93 93 98 99 97 94 90 90 91 91 90 87 80 73 81 82 78 74 74 71 67 67 69 69 70 71 70 71 71 71 69
69 70 73 80 85 89 82 81 84 83 83 89 91 92 93 92 92 95 89 92 94 96 95 94 94 93 91 92 91 90 91 89 87 82 89 89 81 78 78 74 70 74 74 73 74 72 74 73 77
67 72 75 82 84 81 79 80 80 83 85 86 87 88 91 91 89 91 89 89 93 94 92 92 96 98 93 92 92 93 93 92 93 86 88 89 93 91 87 80 80 79 81 77 79 79 77 78 81
62 67 72 74 77 76 76 74 76 76 78 82 84 86 85 83 85 90 87 88 91 92 90 92 93 95 96 94 93 92 94 93 98 92 86 85 92 96 95 91 88 88 84 85 83 82 83 88 89
52 62 68 73 76 73 72 71 73 71 75 80 83 83 82 85 88 87 86 85 87 89 89 90 92 93 94 96 94 93 93 96 97 92 93 91 91 92 98 97 97 97 92 87 83 83 89 90 89
49 62 66 69 70 70 69 69 71 72 76 81 81 82 84 84 85 86 86 84 82 85 87 87 89 91 91 92 94 95 95 97 98 97 99 97 101 97 96 98 101 102 101 98 94 94 93 91 91
46 58 59 64 65 66 69 69 70 71 75 77 78 81 84 86 86 84 83 83 78 82 84 83 87 90 90 90 91 93 96 99 100 99 100 98 100 100 105 104 102 104 104 105 104 104 106 104 103
44 51 53 57 60 64 66 67 70 72 74 76 78 81 84 83 83 83 84 84 80 80 80 80 83 86 86 87 89 92 93 98 102 103 103 102 102 103 104 105 107 107 109 109 109 110 110 110 109
Wind_Direction
227 227 225 224 224 223 220 221 222 223 222 222 220 222 223 222 225 229 232 233 231 232 234 235 236 237 239 240 242 246 249 250 254 254 258 262 267 273 276 279 284 283 282 286 291 292 296 301 301
228 226 226 224 223 222 220 222 223 223 225 221 224 224 223 221 222 225 228 232 231 232 233 235 238 240 240 242 246 247 249 251 253 256 257 263 268 271 271 274 277 283 283 285 287 291 295 297 299
226 225 226 225 223 221 221 223 224 224 224 222 226 228 225 225 223 229 229 230 230 233 233 234 236 239 242 243 245 247 250 251 252 255 257 261 264 266 267 270 274 277 280 285 287 292 294 293 291
224 225 226 225 223 220 220 223 224 224 224 224 226 226 226 227 223 224 226 227 228 229 231 234 236 238 242 244 245 246 248 251 252 255 257 258 261 264 263 267 272 276 279 283 287 289 288 290 288
223 224 224 223 220 220 220 222 222 221 223 225 225 223 225 227 226 226 229 228 231 229 232 234 235 238 242 247 249 248 247 249 252 255 257 257 260 263 262 266 270 275 276 281 285 288 287 285 287
222 223 225 223 220 220 222 223 221 221 224 224 225 223 223 227 228 228 230 230 230 231 231 233 237 240 242 246 253 254 251 249 252 256 257 259 261 263 263 266 271 272 274 279 282 283 284 280 284
220 223 223 222 218 219 222 222 222 218 222 224 225 223 222 226 228 230 231 230 232 233 233 235 238 240 243 245 248 254 256 252 251 252 256 259 262 266 268 268 271 271 274 278 278 279 280 278 279
219 220 221 220 218 219 222 221 223 217 221 222 224 220 220 224 228 230 230 230 233 233 235 236 238 240 242 244 247 251 256 254 255 252 253 256 257 263 265 268 272 270 275 279 275 276 279 279 276
218 219 219 219 220 221 223 221 222 221 218 222 223 221 220 226 226 227 228 228 232 233 235 237 237 239 242 245 247 250 254 257 257 256 255 255 256 258 263 265 271 270 271 276 272 275 278 280 277
220 219 219 219 219 219 223 222 221 222 220 222 222 223 221 224 224 227 227 229 232 233 234 236 238 239 242 243 247 249 251 255 257 255 255 255 257 260 262 264 267 265 270 276 272 277 277 278 276
220 219 220 221 219 219 221 221 221 222 219 223 221 220 224 224 225 227 228 229 232 235 234 236 238 238 240 242 244 250 252 254 257 256 256 255 258 261 263 266 268 266 272 275 272 275 275 277 277
220 218 219 220 222 221 222 222 222 221 219 222 222 221 223 225 225 227 230 231 232 233 233 235 237 237 239 242 241 245 251 253 256 258 257 254 256 261 262 264 263 266 270 271 271 271 271 274 276
217 218 219 220 223 221 222 221 224 220 222 223 224 223 223 227 226 229 230 231 231 233 233 234 236 237 236 239 242 243 248 254 256 257 257 256 255 258 261 262 263 265 265 269 269 270 268 271 275
217 215 218 221 221 221 220 220 224 222 223 222 223 225 224 225 229 228 230 230 232 233 234 235 237 238 237 237 243 244 246 249 255 256 258 258 257 258 260 263 263 263 264 268 271 273 274 274 277
216 214 218 221 223 222 221 221 223 223 224 223 223 226 225 226 227 229 230 228 232 234 236 236 238 239 239 239 242 244 246 247 254 256 257 259 261 259 257 258 262 265 266 270 272 275 276 276 278
212 214 213 218 222 222 223 220 223 224 225 224 222 225 225 225 226 228 232 231 224 232 232 235 239 239 239 240 242 244 244 246 249 254 256 258 260 259 260 258 259 262 266 270 273 274 276 278 280
213 213 212 214 220 222 225 222 223 225 225 226 224 225 225 225 226 228 229 233 232 229 233 235 237 238 239 240 242 243 246 245 248 251 256 258 257 260 260 260 261 262 265 267 269 271 274 276 278
211 212 212 213 218 218 222 223 221 225 225 225 225 225 226 227 227 227 229 231 234 234 234 233 234 238 239 241 241 242 246 247 248 251 254 257 262 264 262 261 262 265 266 268 270 272 273 276 278
210 207 210 213 217 218 217 223 223 223 224 225 225 225 226 227 228 227 228 230 232 233 236 235 236 238 241 242 241 239 240 242 247 250 253 258 261 260 258 257 264 266 266 269 278 283 285 284 282
211 208 210 213 215 215 219 219 223 221 222 224 225 226 225 226 227 228 229 230 231 235 236 237 238 238 241 242 244 246 244 244 245 248 252 256 261 261 262 263 260 257 256 252 253 258 261 261 262
209 211 209 211 214 216 217 219 222 221 221 223 225 227 227 226 228 230 230 232 232 234 236 239 238 240 241 242 243 246 247 244 243 244 245 247 251 254 257 259 260 262 261 259 260 260 259 262 265
207 210 209 209 211 214 218 220 222 223 222 224 225 228 228 229 229 230 230 233 233 234 235 237 241 239 241 241 242 243 247 246 243 242 240 244 245 253 256 258 259 261 261 267 271 269 270 266 268
206 209 210 208 210 213 215 217 221 222 220 223 225 227 227 227 229 230 229 232 234 233 235 238 238 242 242 243 243 241 243 245 243 241 243 244 246 247 248 251 255 257 261 264 264 268 270 274 274
206 206 208 207 211 213 216 218 221 224 223 225 226 227 229 230 230 232 230 232 235 237 236 235 240 239 240 242 244 244 241 242 243 244 243 244 245 249 251 253 256 259 260 260 262 265 270 271 273
205 206 208 210 212 213 215 217 220 220 222 223 225 227 229 230 232 234 232 233 235 236 238 237 236 240 241 242 243 245 245 244 245 243 245 246 245 246 248 252 254 255 259 260 262 264 265 265 269
208 206 209 212 215 214 214 217 222 219 221 224 225 228 230 232 233 234 235 234 235 238 237 239 238 238 241 241 243 244 246 246 245 241 243 242 244 244 246 247 250 252 257 259 260 260 262 264 267
205 205 210 211 215 216 215 215 219 219 221 224 225 228 230 232 233 235 235 237 236 238 238 238 240 240 239 241 242 244 245 248 250 249 243 246 247 247 248 250 252 254 257 258 259 261 264 267 269
201 208 210 211 216 215 216 215 218 219 220 223 226 227 230 232 235 236 238 236 239 240 240 240 241 242 243 243 242 242 243 246 248 248 249 247 249 250 251 251 254 256 258 258 259 262 266 268 270
203 210 210 212 213 215 216 215 217 217 221 225 226 228 230 232 234 236 239 239 238 241 241 242 243 244 244 244 244 244 244 245 247 249 250 249 249 251 251 251 251 254 256 259 260 261 263 265 267
206 213 211 212 213 215 217 216 217 218 220 223 226 229 232 234 236 238 239 240 240 241 242 242 243 244 245 244 245 244 244 245 246 247 250 249 248 249 251 251 253 254 255 257 260 262 265 267 268
Height
10700 10710 10718 10727 10738 10760 10780 10792 10796 10802 10812 10814 10836 10840 10844 10854 10856 10868 10869 10873 10876 10883 10887 10892 10896 10900 10904 10908 10912 10915 10918 10921 10924 10926 10928 10930 10931 10932 10933 10934 10935 10935 10935 10935 10935 10934 10933 10932 10930
10683 10694 10703 10710 10730 10748 10768 10776 10784 10790 10799 10824 10829 10825 10833 10841 10849 10858 10860 10865 10871 10876 10881 10886 10890 10895 10900 10904 10907 10911 10913 10916 10919 10922 10924 10926 10927 10929 10930 10930 10931 10931 10931 10931 10931 10930 10929 10928 10926
10666 10677 10684 10702 10719 10742 10762 10766 10771 10777 10798 10816 10804 10811 10826 10839 10850 10850 10855 10859 10866 10872 10876 10880 10885 10889 10894 10898 10902 10905 10908 10912 10915 10917 10920 10922 10923 10924 10925 10926 10927 10926 10927 10926 10926 10926 10925 10923 10921
10648 10658 10669 10690 10716 10741 10746 10744 10745 10766 10785 10792 10790 10798 10822 10828 10836 10838 10844 10851 10858 10865 10870 10875 10880 10884 10888 10892 10896 10899 10903 10907 10910 10913 10915 10917 10919 10920 10921 10921 10922 10922 10922 10922 10921 10921 10920 10919 10918
10630 10641 10653 10677 10706 10722 10724 10718 10729 10755 10766 10770 10779 10793 10812 10813 10823 10831 10838 10845 10852 10858 10864 10869 10875 10879 10883 10887 10890 10894 10897 10901 10905 10908 10910 10912 10913 10915 10916 10917 10917 10917 10917 10917 10916 10916 10915 10914 10913
10610 10626 10643 10669 10698 10704 10704 10706 10724 10749 10752 10758 10769 10788 10798 10803 10814 10823 10830 10838 10844 10851 10857 10863 10868 10873 10878 10882 10885 10888 10892 10895 10899 10902 10904 10906 10908 10910 10910 10911 10912 10912 10912 10912 10912 10911 10910 10910 10909
10598 10612 10637 10661 10678 10677 10681 10692 10713 10733 10737 10751 10758 10774 10790 10796 10806 10813 10821 10831 10834 10844 10850 10856 10862 10867 10872 10876 10880 10883 10886 10890 10893 10895 10898 10900 10902 10904 10905 10906 10907 10907 10907 10907 10907 10907 10906 10905 10905
10588 10598 10618 10639 10651 10660 10661 10695 10699 10715 10722 10731 10734 10765 10781 10786 10792 10804 10812 10826 10823 10835 10844 10851 10856 10861 10866 10870 10874 10877 10880 10883 10887 10890 10891 10893 10896 10898 10900 10901 10902 10902 10902 10902 10902 10901 10901 10900 10900
10569 10582 10598 10627 10639 10654 10652 10674 10688 10692 10710 10714 10729 10761 10776 10771 10780 10791 10802 10814 10816 10828 10836 10842 10848 10854 10860 10864 10868 10872 10875 10878 10881 10883 10885 10887 10890 10892 10894 10895 10896 10896 10897 10897 10897 10896 10895 10895 10894
10549 10573 10595 10613 10627 10633 10636 10658 10665 10680 10701 10707 10726 10744 10754 10757 10769 10779 10792 10802 10807 10820 10826 10831 10839 10848 10853 10858 10862 10866 10869 10871 10874 10876 10878 10881 10884 10886 10888 10889 10889 10890 10891 10891 10891 10890 10890 10890 10889
10541 10569 10590 10595 10601 10604 10617 10637 10649 10669 10694 10692 10708 10728 10735 10744 10759 10769 10780 10791 10801 10810 10817 10823 10831 10840 10847 10852 10857 10860 10863 10866 10868 10870 10872 10874 10877 10879 10881 10883 10883 10884 10885 10885 10885 10884 10884 10884 10883
10533 10558 10563 10571 10575 10597 10612 10628 10638 10655 10675 10673 10694 10713 10724 10734 10748 10759 10770 10781 10791 10798 10805 10815 10821 10831 10839 10844 10849 10854 10856 10859 10861 10863 10866 10868 10870 10872 10874 10876 10877 10878 10878 10879 10879 10878 10877 10877 10876
10524 10532 10544 10554 10563 10586 10597 10614 10625 10644 10651 10664 10688 10704 10717 10725 10739 10749 10760 10771 10782 10789 10798 10805 10812 10821 10829 10836 10839 10845 10848 10851 10854 10856 10859 10861 10863 10865 10867 10869 10870 10871 10872 10873 10872 10872 10871 10870 10870
10499 10510 10524 10535 10550 10570 10584 10598 10610 10626 10636 10654 10680 10691 10705 10718 10726 10738 10748 10761 10772 10779 10788 10796 10803 10811 10821 10827 10830 10835 10839 10844 10845 10848 10851 10853 10856 10858 10861 10862 10863 10864 10865 10865 10865 10865 10864 10864 10863
10485 10499 10516 10532 10546 10560 10571 10584 10597 10615 10627 10645 10672 10675 10693 10705 10716 10723 10735 10750 10761 10770 10778 10786 10792 10801 10810 10816 10821 10826 10830 10835 10837 10840 10843 10846 10848 10850 10852 10854 10855 10856 10857 10857 10857 10856 10855 10855 10855
10471 10480 10497 10521 10532 10545 10554 10576 10593 10599 10610 10636 10657 10659 10678 10692 10701 10712 10721 10734 10748 10754 10764 10772 10780 10789 10797 10804 10811 10815 10821 10825 10828 10832 10834 10838 10841 10843 10845 10846 10847 10848 10849 10849 10849 10847 10846 10846 10845
10455 10471 10491 10507 10517 10534 10546 10566 10575 10585 10600 10624 10642 10650 10664 10677 10689 10698 10711 10718 10732 10742 10751 10761 10768 10775 10783 10791 10799 10805 10809 10816 10820 10823 10826 10829 10832 10834 10836 10839 10840 10840 10840 10841 10839 10838 10838 10837 10835
10450 10465 10479 10493 10503 10520 10536 10552 10566 10568 10591 10610 10626 10636 10651 10665 10677 10687 10697 10708 10715 10729 10738 10749 10755 10762 10770 10778 10788 10795 10802 10805 10811 10815 10818 10821 10825 10825 10828 10829 10830 10830 10829 10829 10828 10828 10829 10828 10825
10435 10448 10459 10474 10488 10503 10520 10531 10544 10561 10577 10595 10611 10626 10640 10652 10662 10674 10684 10694 10703 10715 10724 10734 10743 10751 10759 10768 10775 10784 10790 10796 10801 10806 10807 10812 10815 10815 10816 10818 10821 10820 10818 10817 10817 10819 10817 10817 10813
10424 10436 10449 10461 10475 10492 10505 10519 10525 10546 10567 10583 10598 10609 10622 10636 10647 10661 10671 10681 10693 10701 10711 10719 10727 10739 10747 10757 10765 10774 10780 10788 10792 10795 10797 10801 10803 10803 10805 10808 10808 10806 10803 10800 10800 10800 10800 10796 10794
10414 10429 10438 10451 10471 10486 10492 10503 10515 10533 10555 10567 10582 10595 10610 10628 10640 10650 10662 10670 10681 10691 10698 10703 10712 10724 10733 10743 10755 10760 10767 10773 10779 10782 10786 10791 10791 10791 10793 10792 10793 10793 10791 10790 10790 10789 10786 10786 10784
10407 10416 10427 10443 10459 10475 10485 10499 10510 10527 10545 10558 10573 10585 10604 10618 10627 10635 10651 10656 10667 10675 10682 10690 10697 10710 10716 10727 10738 10745 10748 10757 10768 10773 10773 10775 10778 10780 10781 10780 10780 10780 10779 10778 10776 10777 10776 10775 10773
10393 10407 10423 10438 10450 10457 10466 10484 10502 10512 10530 10548 10563 10573 10585 10599 10608 10618 10637 10642 10646 10655 10668 10680 10688 10695 10703 10711 10718 10729 10734 10739 10746 10752 10756 10758 10761 10764 10766 10767 10769 10768 10767 10766 10766 10764 10762 10761 10759
10385 10401 10414 10425 10434 10445 10466 10485 10494 10513 10534 10539 10553 10563 10574 10587 10596 10599 10624 10632 10634 10640 10655 10669 10674 10681 10687 10695 10704 10712 10715 10721 10725 10734 10737 10740 10746 10748 10750 10753 10753 10751 10752 10753 10752 10752 10750 10748 10746
10379 10391 10405 10413 10423 10445 10460 10472 10487 10500 10513 10528 10539 10551 10561 10571 10583 10589 10610 10618 10619 10627 10639 10652 10658 10662 10672 10679 10686 10692 10698 10705 10711 10716 10719 10724 10728 10732 10734 10738 10737 10734 10736 10739 10738 10738 10737 10733 10732
10376 10391 10401 10413 10427 10440 10454 10470 10479 10497 10511 10522 10531 10541 10553 10564 10572 10578 10592 10600 10606 10613 10625 10633 10642 10648 10655 10665 10670 10677 10681 10688 10689 10697 10701 10705 10709 10712 10717 10720 10719 10719 10720 10722 10724 10722 10721 10718 10718
10377 10388 10399 10409 10417 10436 10450 10463 10472 10493 10503 10509 10519 10530 10540 10548 10554 10563 10575 10584 10593 10598 10608 10618 10624 10630 10638 10645 10654 10662 10667 10668 10673 10682 10686 10689 10691 10696 10702 10705 10703 10705 10704 10708 10708 10708 10707 10706 10708
10379 10383 10394 10406 10416 10431 10444 10457 10466 10480 10488 10494 10506 10516 10524 10534 10542 10550 10555 10570 10580 10583 10593 10603 10609 10615 10621 10629 10636 10644 10647 10650 10654 10659 10665 10674 10675 10682 10684 10687 10689 10689 10690 10692 10695 10695 10695 10695 10693
10376 10380 10394 10404 10415 10427 10435 10448 10459 10470 10478 10487 10497 10504 10512 10520 10527 10536 10544 10554 10570 10566 10576 10588 10594 10598 10604 10611 10618 10625 10631 10634 10637 10642 10646 10652 10657 10661 10663 10666 10669 10671 10673 10673 10674 10677 10678 10678 10678
10375 10381 10394 10404 10413 10421 10430 10442 10447 10456 10467 10476 10484 10493 10501 10510 10518 10524 10532 10541 10551 10554 10563 10572 10576 10582 10589 10594 10599 10605 10610 10614 10617 10620 10623 10629 10632 10638 10641 10643 10648 10652 10654 10656 10656 10656 10658 10660 10661